EW4963 Weather Reports


time (UTC)temp
C
wind
direction
speed
KPH
gust
KPH
rain 1hr
cm
rain 24hr
cm
rain mn
cm
humidity
%
barometer
mb
20220627210835 31 295 3.2 8.0 0.00 0.00 0.00 59 1017.8
20220627210327 31 44 1.6 9.7 0.00 0.00 0.00 60 1017.8
20220627205828 31 66 3.2 12.9 0.00 0.00 0.00 61 1017.9
20220627205326 31 107 3.2 12.9 0.00 0.00 0.00 61 1017.9
20220627204828 31 49 4.8 17.7 0.00 0.00 0.00 60 1017.9
20220627204325 32 33 3.2 17.7 0.00 0.00 0.00 58 1018.0
20220627203823 32 61 1.6 9.7 0.00 0.00 0.00 59 1018.1
20220627203324 32 73 1.6 9.7 0.00 0.00 0.00 58 1018.1
20220627202826 32 53 1.6 11.3 0.00 0.00 0.00 59 1018.1
20220627202324 31 329 3.2 11.3 0.00 0.00 0.00 60 1018.1
20220627201825 31 298 3.2 14.5 0.00 0.00 0.00 60 1018.1
20220627201322 31 76 3.2 14.5 0.00 0.00 0.00 60 1018.2
20220627200819 31 284 3.2 16.1 0.00 0.00 0.00 61 1018.2
20220627200320 31 41 3.2 16.1 0.00 0.00 0.00 61 1018.4
20220627195822 31 55 3.2 14.5 0.00 0.00 0.00 62 1018.3
20220627195323 31 28 4.8 14.5 0.00 0.00 0.00 62 1018.4
20220627194819 31 50 4.8 14.5 0.00 0.00 0.00 61 1018.5
20220627194320 31 55 3.2 16.1 0.00 0.00 0.00 61 1018.5
20220627193821 31 313 1.6 16.1 0.00 0.00 0.00 61 1018.5
20220627193320 31 336 1.6 11.3 0.00 0.00 0.00 62 1018.6
20220627192820 31 76 3.2 12.9 0.00 0.00 0.00 61 1018.6
20220627192314 31 76 1.6 12.9 0.00 0.00 0.00 60 1018.6
20220627191814 31 286 1.6 8.0 0.00 0.00 0.00 60 1018.6
20220627191314 31 67 3.2 11.3 0.00 0.00 0.00 60 1018.6
20220627190815 31 44 1.6 11.3 0.00 0.00 0.00 61 1018.6
20220627190314 31 73 1.6 11.3 0.00 0.00 0.00 62 1018.9
20220627185815 31 53 3.2 12.9 0.00 0.00 0.00 61 1018.9
20220627185312 31 305 3.2 16.1 0.00 0.00 0.00 62 1018.9
20220627184813 31 60 3.2 16.1 0.00 0.00 0.00 64 1019.0
20220627184312 30 310 3.2 12.9 0.00 0.00 0.00 63 1019.0
20220627183811 30 86 1.6 12.9 0.00 0.00 0.00 63 1019.0
20220627183307 30 314 3.2 12.9 0.00 0.00 0.00 64 1019.3
20220627182807 30 98 3.2 12.9 0.00 0.00 0.00 65 1019.3
20220627182257 30 69 1.6 12.9 0.00 0.00 0.00 63 1019.3
20220627181753 30 0 1.6 9.7 0.00 0.00 0.00 62 1019.5
20220627181255 30 53 4.8 16.1 0.00 0.00 0.00 63 1019.5
20220627180753 30 36 3.2 16.1 0.00 0.00 0.00 63 1019.5
20220627180306 30 76 1.6 9.7 0.00 0.00 0.00 62 1019.7
20220627175756 30 37 1.6 9.7 0.00 0.00 0.00 63 1019.6
20220627175248 30 46 1.6 9.7 0.00 0.00 0.00 63 1019.6
20220627174741 30 307 1.6 9.7 0.00 0.00 0.00 63 1019.8
20220627174243 30 294 3.2 11.3 0.00 0.00 0.00 64 1019.8
20220627173742 29 22 4.8 16.1 0.00 0.00 0.00 64 1019.8
20220627173241 30 315 4.8 16.1 0.00 0.00 0.00 62 1019.8
20220627172741 30 288 3.2 11.3 0.00 0.00 0.00 63 1019.8
20220627172232 30 65 3.2 11.3 0.00 0.00 0.00 61 1019.8
20220627171727 30 30 1.6 11.3 0.00 0.00 0.00 62 1019.9
20220627171228 30 67 3.2 11.3 0.00 0.00 0.00 62 1020.0
20220627170727 30 45 3.2 11.3 0.00 0.00 0.00 61 1020.0
20220627170236 30 91 1.6 9.7 0.00 0.00 0.00 61 1020.0
20220627165724 30 288 1.6 12.9 0.00 0.00 0.00 61 1019.9
20220627165221 30 59 1.6 12.9 0.00 0.00 0.00 61 1020.0
20220627164717 30 98 1.6 8.0 0.00 0.00 0.00 62 1019.9
20220627164218 29 143 1.6 11.3 0.00 0.00 0.00 62 1019.9
20220627163718 29 46 1.6 11.3 0.00 0.00 0.00 61 1019.9
20220627163217 28 53 3.2 11.3 0.00 0.00 0.00 64 1019.7
20220627162718 28 60 1.6 11.3 0.00 0.00 0.00 63 1019.7
20220627162220 28 40 1.6 11.3 0.00 0.00 0.00 64 1019.7
20220627161717 28 72 3.2 17.7 0.00 0.00 0.00 65 1019.8
20220627161211 28 68 3.2 17.7 0.00 0.00 0.00 65 1019.8
20220627160707 28 46 3.2 12.9 0.00 0.00 0.00 65 1019.7
20220627160202 27 69 3.2 16.1 0.00 0.00 0.00 65 1019.6
20220627155659 27 71 3.2 16.1 0.00 0.00 0.00 66 1019.6
20220627155200 27 349 3.2 9.7 0.00 0.00 0.00 66 1019.6
20220627154701 27 46 3.2 8.0 0.00 0.00 0.00 66 1019.6
20220627154200 26 109 3.2 8.0 0.00 0.00 0.00 67 1019.5
20220627153658 26 36 3.2 11.3 0.00 0.00 0.00 68 1019.5
20220627153155 26 65 3.2 11.3 0.00 0.00 0.00 69 1019.7
20220627152655 25 87 3.2 12.9 0.00 0.00 0.00 70 1019.7
20220627152155 25 71 4.8 16.1 0.00 0.00 0.00 69 1019.7
20220627151653 25 84 4.8 16.1 0.00 0.00 0.00 68 1019.7
20220627151155 25 51 4.8 14.5 0.00 0.00 0.00 68 1019.7
20220627150654 25 64 4.8 12.9 0.00 0.00 0.00 67 1019.7
20220627150151 25 355 4.8 20.9 0.00 0.00 0.00 66 1019.7
20220627145645 25 69 3.2 20.9 0.00 0.00 0.00 66 1019.7
20220627145143 25 55 3.2 12.9 0.00 0.00 0.00 66 1019.7
20220627144643 25 72 3.2 12.9 0.00 0.00 0.00 66 1019.7
20220627144143 25 35 3.2 12.9 0.00 0.00 0.00 67 1019.6
20220627143641 25 97 3.2 12.9 0.00 0.00 0.00 67 1019.6
20220627143142 24 306 1.6 11.3 0.00 0.00 0.00 68 1019.7
20220627142642 24 44 1.6 11.3 0.00 0.00 0.00 69 1019.7
20220627142128 23 74 3.2 14.5 0.00 0.00 0.00 68 1019.7
20220627141627 23 52 3.2 14.5 0.00 0.00 0.00 68 1019.6
20220627141127 23 298 1.6 11.3 0.00 0.00 0.00 68 1019.6
20220627140624 23 42 1.6 11.3 0.00 0.00 0.00 69 1019.6
20220627140121 23 0 1.6 9.7 0.00 0.00 0.00 69 1019.3
20220627135616 23 34 1.6 11.3 0.00 0.00 0.00 69 1019.3
20220627135119 23 334 1.6 11.3 0.00 0.00 0.00 70 1019.3
20220627134622 23 51 1.6 8.0 0.00 0.00 0.00 70 1019.2
20220627134119 23 22 1.6 9.7 0.00 0.00 0.00 71 1019.2
20220627133615 22 309 1.6 9.7 0.00 0.00 0.00 72 1019.2
20220627133116 22 11 1.6 12.9 0.00 0.00 0.00 72 1019.1
20220627132618 22 61 1.6 12.9 0.00 0.00 0.00 72 1019.0
20220627132108 22 344 1.6 6.4 0.00 0.00 0.00 72 1019.0
20220627131605 22 77 1.6 11.3 0.00 0.00 0.00 73 1018.9
20220627131051 21 306 1.6 11.3 0.00 0.00 0.00 73 1018.9
20220627130548 21 294 1.6 9.7 0.00 0.00 0.00 73 1018.9
20220627130048 21 310 1.6 9.7 0.00 0.00 0.00 73 1018.8
20220627125546 21 316 1.6 6.4 0.00 0.00 0.00 73 1018.8
20220627125047 21 64 1.6 11.3 0.00 0.00 0.00 73 1018.8
20220627124549 21 300 1.6 11.3 0.00 0.00 0.00 73 1018.4
20220627124042 21 314 1.6 6.4 0.00 0.00 0.00 74 1018.4
20220627123534 21 286 0.0 4.8 0.00 0.00 0.00 74 1018.4
20220627123032 21 281 0.0 6.4 0.00 0.00 0.00 74 1018.3
20220627122530 21 310 0.0 6.4 0.00 0.00 0.00 74 1018.3
20220627122032 21 309 0.0 9.7 0.00 0.00 0.00 73 1018.3
20220627121523 20 309 1.6 9.7 0.00 0.00 0.00 73 1018.2
20220627121006 20 302 0.0 8.0 0.00 0.00 0.00 73 1018.2
20220627120500 20 300 0.0 1.6 0.00 0.00 0.00 73 1018.2
20220627120004 20 299 0.0 4.8 0.00 0.00 0.00 73 1018.2
20220627115458 20 299 0.0 4.8 0.00 0.00 0.00 72 1018.2
20220627114952 20 299 0.0 8.0 0.00 0.00 0.00 72 1018.2
20220627114438 20 296 0.0 8.0 0.00 0.00 0.00 72 1018.1
20220627113926 20 290 0.0 9.7 0.00 0.00 0.00 72 1018.1
20220627113427 20 288 0.0 9.7 0.00 0.00 0.00 72 1018.1
20220627112924 20 311 0.0 8.0 0.00 0.00 0.00 72 1017.9
20220627112423 20 316 0.0 8.0 0.00 0.00 0.00 72 1017.9
20220627111922 21 310 0.0 8.0 0.00 0.00 0.00 71 1017.9
20220627111424 21 44 0.0 8.0 0.00 0.00 0.00 71 1017.7
20220627110918 21 46 0.0 6.4 0.00 0.00 0.00 71 1017.7
20220627110419 21 16 1.6 9.7 0.00 0.00 0.00 71 1017.7
20220627105920 21 340 1.6 9.7 0.00 0.00 0.00 71 1017.7
20220627105421 21 40 0.0 9.7 0.00 0.00 0.00 70 1017.7
20220627104922 21 333 0.0 9.7 0.00 0.00 0.00 70 1017.7
20220627104420 21 298 0.0 14.5 0.00 0.00 0.00 70 1017.6
20220627103914 21 42 1.6 14.5 0.00 0.00 0.00 70 1017.6
20220627103409 21 0 1.6 11.3 0.00 0.00 0.00 70 1017.6
20220627102908 21 293 1.6 8.0 0.00 0.00 0.00 70 1017.7
20220627102417 21 336 0.0 8.0 0.00 0.00 0.00 70 1017.7
20220627101902 21 325 0.0 3.2 0.00 0.00 0.00 69 1017.7
20220627101345 21 306 1.6 8.0 0.00 0.00 0.00 69 1017.7
20220627100845 21 292 1.6 12.9 0.00 0.00 0.00 69 1017.7
20220627100338 21 61 1.6 12.9 0.00 0.00 0.00 69 1017.7
20220627095835 21 338 0.0 8.0 0.00 0.00 0.00 69 1017.7
20220627095328 21 284 1.6 6.4 0.00 0.00 0.00 69 1017.7
20220627094825 21 300 1.6 6.4 0.00 0.00 0.00 68 1017.7
20220627094326 21 346 0.0 8.0 0.00 0.00 0.00 68 1017.6
20220627093822 21 326 0.0 8.0 0.00 0.00 0.00 68 1017.6
20220627093324 21 44 1.6 8.0 0.00 0.00 0.00 68 1017.6
20220627092821 21 292 1.6 8.0 0.00 0.00 0.00 68 1017.4
20220627092315 21 289 1.6 9.7 0.00 0.00 0.00 68 1017.4
20220627091816 21 303 1.6 12.9 0.00 0.00 0.00 68 1017.3
20220627091308 21 10 1.6 12.9 0.00 0.00 0.00 68 1017.3
20220627090809 21 309 1.6 11.3 0.00 0.00 0.00 67 1017.3
20220627090306 21 328 1.6 11.3 0.00 0.00 0.00 67 1017.3
20220627085807 21 299 1.6 14.5 0.00 0.00 0.00 67 1017.3
20220627085306 21 310 1.6 14.5 0.00 0.00 0.00 67 1017.3
20220627084811 21 311 1.6 14.5 0.00 0.00 0.00 67 1017.4
20220627084259 21 258 1.6 9.7 0.00 0.00 0.00 67 1017.4
20220627083757 22 316 1.6 11.3 0.00 0.00 0.00 66 1017.4
20220627083258 22 252 3.2 11.3 0.00 0.00 0.00 66 1017.4
20220627082744 22 309 1.6 11.3 0.00 0.00 0.00 66 1017.4
20220627082237 22 67 3.2 12.9 0.00 0.00 0.00 66 1017.5
20220627081738 22 304 4.8 14.5 0.00 0.00 0.00 66 1017.5
20220627081236 22 300 3.2 14.5 0.00 0.00 0.00 65 1017.6
20220627080734 22 257 1.6 11.3 0.00 0.00 0.00 65 1017.6
20220627080246 22 317 3.2 19.3 0.00 0.00 0.00 65 1017.5
20220627075726 22 317 3.2 19.3 0.00 0.00 0.00 65 1017.5
20220627075228 22 340 1.6 11.3 0.00 0.00 0.00 65 1017.5
20220627074726 22 321 1.6 9.7 0.00 0.00 0.00 64 1017.5
20220627074222 22 313 1.6 12.9 0.00 0.00 0.00 64 1017.5
20220627073724 22 282 3.2 12.9 0.00 0.00 0.00 64 1017.5
20220627073223 22 300 1.6 11.3 0.00 0.00 0.00 64 1017.6
20220627072720 22 303 1.6 8.0 0.00 0.00 0.00 63 1017.6
20220627072221 22 45 1.6 12.9 0.00 0.00 0.00 63 1017.6
20220627071720 22 346 1.6 12.9 0.00 0.00 0.00 63 1017.7
20220627071220 23 265 1.6 11.3 0.00 0.00 0.00 63 1017.7
20220627070722 23 329 1.6 11.3 0.00 0.00 0.00 63 1017.7
20220627070217 23 20 3.2 11.3 0.00 0.00 0.00 62 1017.7
20220627065717 23 14 1.6 12.9 0.00 0.00 0.00 62 1017.7
20220627065220 23 309 3.2 12.9 0.00 0.00 0.00 62 1017.7
20220627064714 23 315 3.2 14.5 0.00 0.00 0.00 61 1017.7
20220627064214 23 313 1.6 14.5 0.00 0.00 0.00 61 1017.7
20220627063715 23 281 1.6 9.7 0.00 0.00 0.00 60 1017.7
20220627063217 23 26 1.6 11.3 0.00 0.00 0.00 60 1017.5
20220627062215 23 287 3.2 14.5 0.00 0.00 0.00 60 1017.5
20220627061712 23 291 4.8 14.5 0.00 0.00 0.00 59 1017.7
20220627061212 23 355 3.2 14.5 0.00 0.00 0.00 59 1017.7
20220627060710 23 323 1.6 9.7 0.00 0.00 0.00 59 1017.7
20220627060204 23 24 1.6 12.9 0.00 0.00 0.00 58 1017.7
20220627055708 24 296 1.6 12.9 0.00 0.00 0.00 58 1017.7
20220627055205 24 346 3.2 9.7 0.00 0.00 0.00 58 1017.7
20220627054706 24 300 3.2 9.7 0.00 0.00 0.00 58 1017.8
20220627054208 24 306 3.2 9.7 0.00 0.00 0.00 57 1017.8
20220627053701 24 237 1.6 9.7 0.00 0.00 0.00 57 1017.9
20220627053202 24 63 1.6 9.7 0.00 0.00 0.00 57 1017.8
20220627052705 24 5 1.6 9.7 0.00 0.00 0.00 57 1017.8
20220627052200 25 259 1.6 9.7 0.00 0.00 0.00 57 1017.8
20220627051700 25 49 3.2 14.5 0.00 0.00 0.00 57 1017.9
20220627051202 25 78 3.2 14.5 0.00 0.00 0.00 57 1017.9
20220627050700 25 348 3.2 12.9 0.00 0.00 0.00 57 1017.9
20220627050202 25 329 3.2 12.9 0.00 0.00 0.00 58 1017.8
20220627045654 25 292 3.2 11.3 0.00 0.00 0.00 59 1017.8
20220627045151 25 290 1.6 11.3 0.00 0.00 0.00 60 1017.8
20220627044647 25 279 3.2 9.7 0.00 0.00 0.00 61 1017.8
20220627044146 25 267 3.2 12.9 0.00 0.00 0.00 61 1017.8
20220627043646 25 292 1.6 12.9 0.00 0.00 0.00 63 1017.9
20220627043143 25 309 1.6 9.7 0.00 0.00 0.00 63 1017.8
20220627042628 25 32 3.2 11.3 0.00 0.00 0.00 62 1017.8
20220627042121 25 65 3.2 11.3 0.00 0.00 0.00 62 1017.8
20220627041621 26 287 3.2 12.9 0.00 0.00 0.00 62 1017.5
20220627041111 26 317 3.2 12.9 0.00 0.00 0.00 63 1017.5
20220627040612 26 44 3.2 14.5 0.00 0.00 0.00 64 1017.5
20220627040104 26 319 3.2 14.5 0.00 0.00 0.00 65 1017.4
20220627035604 26 341 3.2 11.3 0.00 0.00 0.00 66 1017.4
20220627035058 26 346 1.6 8.0 0.00 0.00 0.00 68 1017.4
20220627034559 26 49 3.2 11.3 0.00 0.00 0.00 67 1017.6
20220627034043 26 292 3.2 11.3 0.00 0.00 0.00 67 1017.6
20220627033542 26 59 3.2 14.5 0.00 0.00 0.00 67 1017.6
20220627033039 26 28 3.2 14.5 0.00 0.00 0.00 67 1017.4
20220627032540 26 42 3.2 16.1 0.00 0.00 0.00 67 1017.4
20220627032039 27 0 3.2 16.1 0.00 0.00 0.00 67 1017.4
20220627031540 27 30 1.6 11.3 0.00 0.00 0.00 67 1017.2
20220627031040 27 9 1.6 20.9 0.00 0.00 0.00 67 1017.2
20220627030538 27 40 1.6 20.9 0.00 0.00 0.00 67 1017.2
20220627030046 27 329 3.2 12.9 0.00 0.00 0.00 67 1017.0
20220627025537 27 305 4.8 12.9 0.00 0.00 0.00 67 1017.0
20220627025028 27 5 3.2 11.3 0.00 0.00 0.00 67 1017.0
20220627024527 27 309 3.2 12.9 0.00 0.00 0.00 67 1016.9
20220627024027 27 303 3.2 12.9 0.00 0.00 0.00 67 1016.9
20220627023528 27 26 3.2 12.9 0.00 0.00 0.00 67 1016.9
20220627023021 27 288 4.8 14.5 0.00 0.00 0.00 67 1016.8
20220627022523 28 17 4.8 16.1 0.00 0.00 0.00 67 1016.8
20220627022021 28 293 4.8 16.1 0.00 0.00 0.00 67 1016.8
20220627021517 28 311 3.2 11.3 0.00 0.00 0.00 68 1016.5
20220627021018 28 340 1.6 11.3 0.00 0.00 0.00 68 1016.5
20220627020505 28 315 3.2 19.3 0.00 0.00 0.00 68 1016.5
20220627020006 28 297 3.2 19.3 0.00 0.00 0.00 67 1016.2
20220627015455 28 310 4.8 14.5 0.00 0.00 0.00 67 1016.2
20220627014953 28 282 4.8 14.5 0.00 0.00 0.00 67 1016.2
20220627013953 29 0 3.2 12.9 0.00 0.00 0.00 66 1015.7
20220627013451 29 277 3.2 12.9 0.00 0.00 0.00 66 1015.7
20220627012951 29 292 1.6 12.9 0.00 0.00 0.00 65 1015.4
20220627012455 29 327 1.6 11.3 0.00 0.00 0.00 65 1015.4
20220627011944 30 346 3.2 14.5 0.00 0.00 0.00 64 1015.4
20220627011440 30 323 3.2 14.5 0.00 0.00 0.00 64 1015.1
20220627010939 30 19 3.2 14.5 0.00 0.00 0.00 64 1015.2
20220627010442 30 309 3.2 12.9 0.00 0.00 0.00 64 1015.2
20220627005936 30 256 3.2 16.1 0.00 0.00 0.00 64 1015.3
20220627005432 30 0 3.2 16.1 0.00 0.00 0.00 64 1015.3
20220627004932 30 301 3.2 12.9 0.00 0.00 0.00 63 1015.3
20220627004435 30 309 3.2 12.9 0.00 0.00 0.00 64 1015.1
20220627003929 31 227 1.6 9.7 0.00 0.00 0.00 64 1015.1
20220627003428 31 0 1.6 11.3 0.00 0.00 0.00 64 1015.1
20220627002929 31 348 3.2 11.3 0.00 0.00 0.00 63 1015.0
20220627002422 31 334 3.2 17.7 0.00 0.00 0.00 63 1015.0
20220627001921 31 9 1.6 17.7 0.00 0.00 0.00 62 1015.0
20220627001421 31 304 3.2 19.3 0.00 0.00 0.00 62 1015.0
20220627000922 31 307 4.8 19.3 0.00 0.00 0.00 62 1015.0
20220627000418 31 300 4.8 12.9 0.00 0.00 0.00 62 1015.0
20220626235919 31 0 3.2 12.9 0.00 0.00 0.00 62 1014.8
20220626235417 31 314 4.8 12.9 0.00 0.00 0.00 62 1014.8
20220626234918 31 338 4.8 16.1 0.00 0.00 0.00 61 1014.8
20220626234417 32 83 3.2 17.7 0.00 0.00 0.00 62 1014.5
20220626233915 32 48 3.2 17.7 0.00 0.00 0.00 62 1014.6
20220626233415 32 302 3.2 17.7 0.00 0.00 0.00 61 1014.6
20220626232929 32 274 3.2 17.7 0.00 0.00 0.00 61 1014.4
20220626232422 32 298 4.8 14.5 0.00 0.00 0.00 61 1014.4
20220626231855 32 295 3.2 19.3 0.00 0.00 0.00 61 1014.4
20220626231354 33 71 3.2 19.3 0.00 0.00 0.00 60 1014.3
20220626230856 33 61 3.2 16.1 0.00 0.00 0.00 61 1014.3
20220626230356 33 48 4.8 16.1 0.00 0.00 0.00 60 1014.3
20220626225851 33 317 4.8 16.1 0.00 0.00 0.00 59 1014.4
20220626225353 33 290 4.8 29.0 0.00 0.00 0.00 59 1014.4
20220626224839 33 274 4.8 22.5 0.00 0.00 0.00 58 1014.4
20220626224339 34 62 4.8 11.3 0.00 0.00 0.00 58 1014.5
20220626223835 34 13 4.8 14.5 0.00 0.00 0.00 58 1014.5
20220626223336 34 67 4.8 16.1 0.00 0.00 0.00 57 1014.5
20220626222838 34 266 4.8 17.7 0.00 0.00 0.00 57 1014.5
20220626222335 35 40 4.8 17.7 0.00 0.00 0.00 58 1014.5
20220626221836 35 299 4.8 17.7 0.00 0.00 0.00 57 1014.5
20220626221336 35 323 3.2 12.9 0.00 0.00 0.00 56 1014.4
20220626220837 35 32 6.4 17.7 0.00 0.00 0.00 56 1014.4
20220626220344 35 294 6.4 17.7 0.00 0.00 0.00 55 1014.4
20220626215844 35 268 4.8 16.1 0.00 0.00 0.00 55 1014.5
20220626215331 35 276 6.4 20.9 0.00 0.00 0.00 56 1014.5
20220626214845 35 267 4.8 20.9 0.00 0.00 0.00 55 1014.5
20220626214348 36 300 3.2 14.5 0.00 0.00 0.00 56 1014.7
20220626213842 35 355 4.8 14.5 0.00 0.00 0.00 55 1014.6
20220626213336 35 279 4.8 14.5 0.00 0.00 0.00 54 1014.6
20220626212834 35 295 3.2 14.5 0.00 0.00 0.00 54 1014.8
20220626212335 36 63 1.6 14.5 0.00 0.00 0.00 54 1014.9
20220626211831 36 16 1.6 12.9 0.00 0.00 0.00 53 1014.8
20220626211333 36 0 3.2 12.9 0.00 0.00 0.00 54 1014.8